Flag for Germany Weather past 2 weeks in Tuttlingen, Baden-Württemberg, Germany

Now
40 °F

Clear.


Feels Like: 36 °F
Forecast: 32 / 58 °F
Wind: 5 mph from Northeast

Location: Konstanz

Current Time: Apr 19, 2015 at 5:57:37 AM

Latest Report: Apr 19, 2015 at 5:00 AM


Visibility: 34 mi

Pressure: 30.13 "Hg

Humidity: 64%

Dew point: 28 °F

Location of TuttlingenLocation

Historic Weather in Tuttlingen — Graph

°F

Tuttlingen temperature yesterday

Maximum temperature yesterday: 55 °F (at 3:00 PM)
Minimum temperature yesterday: 42 °F (at 7:00 AM)
Average temperature yesterday: 48 °F

Past Weeks' High & Low Weather Summary

 TemperatureHumidityPressure
High74 °F (Apr 15, 4:00 PM)99% (Apr 4, 6:00 AM)30.62 "Hg (Apr 4, 6:00 AM)
Low30 °F (Apr 6, 7:00 AM)20% (Apr 8, 5:00 PM)29.88 "Hg (Apr 16, 6:00 PM)
Average50 °F62%30.25 "Hg
* Reported Apr 4 5:00 AM — Apr 19 5:00 AM, Tuttlingen, Weather by CustomWeather, © 2015

Note: Actual official high and low records may vary slightly from our data, if they occured in-between our weather recording intervals... More about our weather records

Advertising

Tuttlingen weather history for previous 24 hours

 ConditionsComfort  
Time TempWeatherWind HumidityBarometerVisibility
5:00 AM
Sun, Apr 19
40 °FClear.5 mph64%30.13 "Hg34 mi
4:00 AM41 °FClear.5 mph61%30.14 "Hg40 mi
3:00 AM43 °FClear.6 mph54%30.15 "Hg43 mi
2:00 AM43 °FClear.6 mph54%30.17 "Hg43 mi
1:00 AM44 °FClear.5 mph54%30.17 "Hg43 mi
12:00 AM44 °FClear.5 mph54%30.18 "Hg43 mi
11:00 PM
Sat, Apr 18
45 °FClear.3 mph53%30.19 "Hg43 mi
10:00 PM46 °FClear.5 mph50%30.19 "Hg43 mi
9:00 PM47 °FPassing clouds.3 mph48%30.19 "Hg25 mi
8:00 PM50 °FPassing clouds.3 mph42%30.18 "Hg31 mi
7:00 PM52 °FPassing clouds.5 mph40%30.17 "Hg28 mi
6:00 PM53 °FPassing clouds.6 mph38%30.16 "Hg28 mi
5:00 PM53 °FPassing clouds.6 mph42%30.17 "Hg28 mi
4:00 PM54 °FScattered clouds.5 mph40%30.19 "Hg28 mi
3:00 PM55 °FScattered clouds.6 mph41%30.19 "Hg25 mi
2:00 PM54 °FScattered clouds.6 mph42%30.19 "Hg25 mi
1:00 PM53 °FScattered clouds.5 mph44%30.20 "Hg25 mi
12:00 PM50 °FPartly sunny.6 mph49%30.21 "Hg25 mi
11:00 AM48 °FOvercast.6 mph56%30.20 "Hg25 mi
10:00 AM46 °FOvercast.5 mph60%30.18 "Hg25 mi
9:00 AM45 °FOvercast.3 mph65%30.18 "Hg25 mi
8:00 AM43 °FOvercast.3 mph70%30.17 "Hg19 mi
7:00 AM42 °FOvercast.3 mph74%30.16 "Hg15 mi
6:00 AM44 °FOvercast.3 mph70%30.14 "Hg16 mi
5:00 AM44 °FOvercast.5 mph76%30.13 "Hg22 mi
Weather by CustomWeather, © 2015

See weather overviewHow to use our weather pages